Flag for Canada Weather past 2 weeks in Rainy River, Ontario, Canada

Now
70 °F

Sunny.


Feels Like: 77 °F
Forecast: 47 / 70 °F
Wind: 8 mph from Southwest

Location: Baudette International Airport

Current Time: Sep 22, 2014 at 2:02:53 PM

Latest Report: Sep 22, 2014 at 12:53 PM


Visibility: 10 mi

Pressure: 30.10 "Hg

Humidity: 46%

Dew point: 48 °F

Location of Rainy RiverLocation

Historic Weather in Rainy River — Graph

°F

Rainy River temperature yesterday

Maximum temperature yesterday: 63 °F (at 3:53 PM)
Minimum temperature yesterday: 47 °F (at 11:53 PM)
Average temperature yesterday: 54 °F

Past Weeks' High & Low Weather Summary

 TemperatureHumidityPressure
High79 °F (Sep 8, 4:53 PM)100% (Sep 18, 7:01 AM)30.46 "Hg (Sep 18, 7:01 AM)
Low31 °F (Sep 13, 4:53 AM)35% (Sep 15, 2:53 PM)29.51 "Hg (Sep 19, 8:53 PM)
Average52 °F76%30.03 "Hg
* Reported Sep 7 12:53 PM — Sep 22 12:53 PM, Rainy River, Weather by CustomWeather, © 2014

Note: Actual official high and low records may vary slightly from our data, if they occured in-between our weather recording intervals... More about our weather records

Advertising

Rainy River weather history for previous 24 hours

 ConditionsComfort  
Time TempWeatherWind HumidityBarometerVisibility
12:53 PM
Sep 22
70 °FSunny.8 mph46%30.10 "Hg10 mi
11:53 AM68 °FSunny.9 mph53%30.11 "Hg10 mi
10:53 AM64 °FSunny.9 mph61%30.13 "Hg10 mi
9:53 AM59 °FSunny.7 mph72%30.14 "Hg10 mi
8:53 AM53 °FSunny.8 mph83%30.14 "Hg10 mi
7:53 AM49 °FClear.7 mph90%30.15 "Hg10 mi
6:53 AM47 °FClear.6 mph93%30.15 "Hg10 mi
5:53 AM48 °FClear.6 mph93%30.14 "Hg10 mi
4:53 AM47 °FClear.5 mph93%30.14 "Hg10 mi
3:53 AM48 °FClear.6 mph93%30.14 "Hg10 mi
2:53 AM46 °FClear.5 mph96%30.15 "Hg10 mi
1:53 AM49 °FClear.6 mph90%30.16 "Hg10 mi
12:53 AM47 °FClear.5 mph93%30.16 "Hg10 mi
11:53 PM
Sep 21
47 °FClear.3 mph93%30.17 "Hg9 mi
10:53 PM49 °FClear.No wind93%30.18 "Hg10 mi
9:53 PM52 °FOvercast.3 mph89%30.19 "Hg10 mi
8:53 PM52 °FPassing clouds.No wind86%30.19 "Hg10 mi
7:53 PM53 °FSunny.3 mph83%30.19 "Hg10 mi
6:53 PM57 °FSunny.3 mph74%30.19 "Hg10 mi
5:53 PM59 °FPartly sunny.9 mph72%30.19 "Hg10 mi
4:53 PM60 °FBroken clouds.8 mph67%30.18 "Hg10 mi
3:53 PM63 °FSunny.9 mph58%30.18 "Hg10 mi
2:53 PM61 °FSunny.7 mph58%30.19 "Hg10 mi
Weather by CustomWeather, © 2014

See weather overviewHow to use our weather pages